Tracking 32991 objects as of 22-Jan-2026
HD Live streaming from Space Station
objects crossing your sky now

FREGAT DEB

Track FREGAT DEB now!
10-day predictions


NORAD ID: 46006
Int'l Code: 2011-037HH
Perigee: 338.9 km
Apogee: 2,921.8 km
Inclination: 51.4 °
Period: 118.7 minutes
Semi major axis: 8001 km
RCS: Unknown
Launch date: July 18, 2011
Source: Commonwealth of Independent States (former USSR) (CIS)
Launch site: TYURATAM MISSILE AND SPACE COMPLEX (TTMTR)

Note: This is SATELLITE DEBRIS
Your satellite tracking list
Your tracking list is empty




NASA's NSSDC Master Catalog

Two Line Element Set (TLE):
1 46006U 11037HH  26021.43486230  .00025199  00000-0  15009-2 0  9992
2 46006  51.4121 172.9604 1614035 327.7076  23.4176 12.12995691232985
Source of the keplerian elements: AFSPC